User: anonymous   Login
Location: Unspecified
(0.0000°N, 0.0000°E)
Time: 11:56:59
(UTC+00:00)
Language:

SLDCOM 1 - Orbit

View from above orbital plane
View from above orbital plane
View from above satellite
View from above satellite

Ground track
Ground track

The orbit data is extracted from the following two-line orbital elements,

1 20641U 90050A   17284.00473034 0.00000000  00000-0  00000-0 0    03
2 20641  63.4235  75.4197 4049452 264.7089  49.1549  6.02571000    08
Epoch (UTC): 11 October 2017 00:06:48
Eccentricity: 0.4049452
inclination: 63.4235°
perigee height: 1212 km
apogee height: 11544 km
right ascension of ascending node: 75.4197°
argument of perigee: 264.7089°
revolutions per day: 6.02571000
mean anomaly at epoch: 49.1549°
orbit number at epoch: 0

The dashed part of the orbit path shows where the satellite is in the earth's shadow,  

DLR